Date Hour Ending, MW ,,,,,,,,,,,,,,,,,
 05/01/2018 1:00,40,,,,,,,,,,,,,,,,,
 05/01/2018 2:00,28,,,,,,,,,,,,,,,,,
 05/01/2018 3:00,25,,,,,,,,,,,,,,,,,
 05/01/2018 4:00,50,,,,,,,,,,,,,,,,,
 05/01/2018 5:00,64,,,,,,,,,,,,,,,,,
 05/01/2018 6:00,74,,,,,,,,,,,,,,,,,
 05/01/2018 7:00,139,,,,,,,,,,,,,,,,,
 05/01/2018 8:00,212,,,,,,,,,,,,,,,,,
 05/01/2018 9:00,247,,,,,,,,,,,,,,,,,
 05/01/2018 10:00,258,,,,,,,,,,,,,,,,,
 05/01/2018 11:00,260,,,,,,,,,,,,,,,,,
 05/01/2018 12:00,274,,,,,,,,,,,,,,,,,
 05/01/2018 13:00,296,,,,,,,,,,,,,,,,,
 05/01/2018 14:00,361,,,,,,,,,,,,,,,,,
 05/01/2018 15:00,360,,,,,,,,,,,,,,,,,
 05/01/2018 16:00,340,,,,,,,,,,,,,,,,,
 05/01/2018 17:00,336,,,,,,,,,,,,,,,,,
 05/01/2018 18:00,350,,,,,,,,,,,,,,,,,
 05/01/2018 19:00,340,,,,,,,,,,,,,,,,,
 05/01/2018 20:00,343,,,,,,,,,,,,,,,,,
 05/01/2018 21:00,348,,,,,,,,,,,,,,,,,
 05/01/2018 22:00,335,,,,,,,,,,,,,,,,,
 05/01/2018 23:00,264,,,,,,,,,,,,,,,,,
 05/02/2018 0:00,111,,,,,,,,,,,,,,,,,
 05/02/2018 1:00,49,,,,,,,,,,,,,,,,,
 05/02/2018 2:00,39,,,,,,,,,,,,,,,,,
 05/02/2018 3:00,24,,,,,,,,,,,,,,,,,
 05/02/2018 4:00,6,,,,,,,,,,,,,,,,,
 05/02/2018 5:00,8,,,,,,,,,,,,,,,,,
 05/02/2018 6:00,15,,,,,,,,,,,,,,,,,
 05/02/2018 7:00,74,,,,,,,,,,,,,,,,,
 05/02/2018 8:00,98,,,,,,,,,,,,,,,,,
 05/02/2018 9:00,94,,,,,,,,,,,,,,,,,
 05/02/2018 10:00,175,,,,,,,,,,,,,,,,,
 05/02/2018 11:00,116,,,,,,,,,,,,,,,,,
 05/02/2018 12:00,141,,,,,,,,,,,,,,,,,
 05/02/2018 13:00,134,,,,,,,,,,,,,,,,,
 05/02/2018 14:00,110,,,,,,,,,,,,,,,,,
 05/02/2018 15:00,75,,,,,,,,,,,,,,,,,
 05/02/2018 16:00,43,,,,,,,,,,,,,,,,,
 05/02/2018 17:00,61,,,,,,,,,,,,,,,,,
 05/02/2018 18:00,59,,,,,,,,,,,,,,,,,
 05/02/2018 19:00,56,,,,,,,,,,,,,,,,,
 05/02/2018 20:00,52,,,,,,,,,,,,,,,,,
 05/02/2018 21:00,60,,,,,,,,,,,,,,,,,
 05/02/2018 22:00,82,,,,,,,,,,,,,,,,,
 05/02/2018 23:00,18,,,,,,,,,,,,,,,,,
 05/03/2018 0:00,5,,,,,,,,,,,,,,,,,
 05/03/2018 1:00,43,,,,,,,,,,,,,,,,,
 05/03/2018 2:00,67,,,,,,,,,,,,,,,,,
 05/03/2018 3:00,79,,,,,,,,,,,,,,,,,
 05/03/2018 4:00,82,,,,,,,,,,,,,,,,,
 05/03/2018 5:00,68,,,,,,,,,,,,,,,,,
 05/03/2018 6:00,114,,,,,,,,,,,,,,,,,
 05/03/2018 7:00,192,,,,,,,,,,,,,,,,,
 05/03/2018 8:00,195,,,,,,,,,,,,,,,,,
 05/03/2018 9:00,230,,,,,,,,,,,,,,,,,
 05/03/2018 10:00,263,,,,,,,,,,,,,,,,,
 05/03/2018 11:00,256,,,,,,,,,,,,,,,,,
 05/03/2018 12:00,248,,,,,,,,,,,,,,,,,
 05/03/2018 13:00,268,,,,,,,,,,,,,,,,,
 05/03/2018 14:00,295,,,,,,,,,,,,,,,,,
 05/03/2018 15:00,317,,,,,,,,,,,,,,,,,
 05/03/2018 16:00,302,,,,,,,,,,,,,,,,,
 05/03/2018 17:00,327,,,,,,,,,,,,,,,,,
 05/03/2018 18:00,347,,,,,,,,,,,,,,,,,
 05/03/2018 19:00,336,,,,,,,,,,,,,,,,,
 05/03/2018 20:00,294,,,,,,,,,,,,,,,,,
 05/03/2018 21:00,228,,,,,,,,,,,,,,,,,
 05/03/2018 22:00,189,,,,,,,,,,,,,,,,,
 05/03/2018 23:00,115,,,,,,,,,,,,,,,,,
 05/04/2018 0:00,66,,,,,,,,,,,,,,,,,
 05/04/2018 1:00,-17,,,,,,,,,,,,,,,,,
 05/04/2018 2:00,3,,,,,,,,,,,,,,,,,
 05/04/2018 3:00,-8,,,,,,,,,,,,,,,,,
 05/04/2018 4:00,-13,,,,,,,,,,,,,,,,,
 05/04/2018 5:00,-18,,,,,,,,,,,,,,,,,
 05/04/2018 6:00,35,,,,,,,,,,,,,,,,,
 05/04/2018 7:00,150,,,,,,,,,,,,,,,,,
 05/04/2018 8:00,121,,,,,,,,,,,,,,,,,
 05/04/2018 9:00,159,,,,,,,,,,,,,,,,,
 05/04/2018 10:00,203,,,,,,,,,,,,,,,,,
 05/04/2018 11:00,211,,,,,,,,,,,,,,,,,
 05/04/2018 12:00,165,,,,,,,,,,,,,,,,,
 05/04/2018 13:00,168,,,,,,,,,,,,,,,,,
 05/04/2018 14:00,149,,,,,,,,,,,,,,,,,
 05/04/2018 15:00,130,,,,,,,,,,,,,,,,,
 05/04/2018 16:00,125,,,,,,,,,,,,,,,,,
 05/04/2018 17:00,129,,,,,,,,,,,,,,,,,
 05/04/2018 18:00,164,,,,,,,,,,,,,,,,,
 05/04/2018 19:00,167,,,,,,,,,,,,,,,,,
 05/04/2018 20:00,160,,,,,,,,,,,,,,,,,
 05/04/2018 21:00,191,,,,,,,,,,,,,,,,,
 05/04/2018 22:00,192,,,,,,,,,,,,,,,,,
 05/04/2018 23:00,152,,,,,,,,,,,,,,,,,
 05/05/2018 0:00,89,,,,,,,,,,,,,,,,,
 05/05/2018 1:00,-10,,,,,,,,,,,,,,,,,
 05/05/2018 2:00,-27,,,,,,,,,,,,,,,,,
 05/05/2018 3:00,-52,,,,,,,,,,,,,,,,,
 05/05/2018 4:00,-55,,,,,,,,,,,,,,,,,
 05/05/2018 5:00,-55,,,,,,,,,,,,,,,,,
 05/05/2018 6:00,-65,,,,,,,,,,,,,,,,,
 05/05/2018 7:00,-65,,,,,,,,,,,,,,,,,
 05/05/2018 8:00,-61,,,,,,,,,,,,,,,,,
 05/05/2018 9:00,-32,,,,,,,,,,,,,,,,,
 05/05/2018 10:00,19,,,,,,,,,,,,,,,,,
 05/05/2018 11:00,32,,,,,,,,,,,,,,,,,
 05/05/2018 12:00,41,,,,,,,,,,,,,,,,,
 05/05/2018 13:00,-2,,,,,,,,,,,,,,,,,
 05/05/2018 14:00,-26,,,,,,,,,,,,,,,,,
 05/05/2018 15:00,-22,,,,,,,,,,,,,,,,,
 05/05/2018 16:00,22,,,,,,,,,,,,,,,,,
 05/05/2018 17:00,26,,,,,,,,,,,,,,,,,
 05/05/2018 18:00,25,,,,,,,,,,,,,,,,,
 05/05/2018 19:00,16,,,,,,,,,,,,,,,,,
 05/05/2018 20:00,2,,,,,,,,,,,,,,,,,
 05/05/2018 21:00,-29,,,,,,,,,,,,,,,,,
 05/05/2018 22:00,-48,,,,,,,,,,,,,,,,,
 05/05/2018 23:00,-67,,,,,,,,,,,,,,,,,
 05/06/2018 0:00,-50,,,,,,,,,,,,,,,,,
 05/06/2018 1:00,-46,,,,,,,,,,,,,,,,,
 05/06/2018 2:00,-37,,,,,,,,,,,,,,,,,
 05/06/2018 3:00,-50,,,,,,,,,,,,,,,,,
 05/06/2018 4:00,-47,,,,,,,,,,,,,,,,,
 05/06/2018 5:00,-48,,,,,,,,,,,,,,,,,
 05/06/2018 6:00,-45,,,,,,,,,,,,,,,,,
 05/06/2018 7:00,-3,,,,,,,,,,,,,,,,,
 05/06/2018 8:00,-11,,,,,,,,,,,,,,,,,
 05/06/2018 9:00,-17,,,,,,,,,,,,,,,,,
 05/06/2018 10:00,-10,,,,,,,,,,,,,,,,,
 05/06/2018 11:00,-9,,,,,,,,,,,,,,,,,
 05/06/2018 12:00,-6,,,,,,,,,,,,,,,,,
 05/06/2018 13:00,35,,,,,,,,,,,,,,,,,
 05/06/2018 14:00,39,,,,,,,,,,,,,,,,,
 05/06/2018 15:00,40,,,,,,,,,,,,,,,,,
 05/06/2018 16:00,65,,,,,,,,,,,,,,,,,
 05/06/2018 17:00,100,,,,,,,,,,,,,,,,,
 05/06/2018 18:00,143,,,,,,,,,,,,,,,,,
 05/06/2018 19:00,179,,,,,,,,,,,,,,,,,
 05/06/2018 20:00,190,,,,,,,,,,,,,,,,,
 05/06/2018 21:00,181,,,,,,,,,,,,,,,,,
 05/06/2018 22:00,128,,,,,,,,,,,,,,,,,
 05/06/2018 23:00,77,,,,,,,,,,,,,,,,,
 05/07/2018 0:00,14,,,,,,,,,,,,,,,,,
 05/07/2018 1:00,-4,,,,,,,,,,,,,,,,,
 05/07/2018 2:00,6,,,,,,,,,,,,,,,,,
 05/07/2018 3:00,13,,,,,,,,,,,,,,,,,
 05/07/2018 4:00,13,,,,,,,,,,,,,,,,,
 05/07/2018 5:00,17,,,,,,,,,,,,,,,,,
 05/07/2018 6:00,23,,,,,,,,,,,,,,,,,
 05/07/2018 7:00,50,,,,,,,,,,,,,,,,,
 05/07/2018 8:00,142,,,,,,,,,,,,,,,,,
 05/07/2018 9:00,109,,,,,,,,,,,,,,,,,
 05/07/2018 10:00,81,,,,,,,,,,,,,,,,,
 05/07/2018 11:00,116,,,,,,,,,,,,,,,,,
 05/07/2018 12:00,128,,,,,,,,,,,,,,,,,
 05/07/2018 13:00,132,,,,,,,,,,,,,,,,,
 05/07/2018 14:00,196,,,,,,,,,,,,,,,,,
 05/07/2018 15:00,239,,,,,,,,,,,,,,,,,
 05/07/2018 16:00,226,,,,,,,,,,,,,,,,,
 05/07/2018 17:00,215,,,,,,,,,,,,,,,,,
 05/07/2018 18:00,202,,,,,,,,,,,,,,,,,
 05/07/2018 19:00,169,,,,,,,,,,,,,,,,,
 05/07/2018 20:00,170,,,,,,,,,,,,,,,,,
 05/07/2018 21:00,175,,,,,,,,,,,,,,,,,
 05/07/2018 22:00,140,,,,,,,,,,,,,,,,,
 05/07/2018 23:00,78,,,,,,,,,,,,,,,,,
 05/08/2018 0:00,52,,,,,,,,,,,,,,,,,
 05/08/2018 1:00,32,,,,,,,,,,,,,,,,,
 05/08/2018 2:00,29,,,,,,,,,,,,,,,,,
 05/08/2018 3:00,30,,,,,,,,,,,,,,,,,
 05/08/2018 4:00,31,,,,,,,,,,,,,,,,,
 05/08/2018 5:00,33,,,,,,,,,,,,,,,,,
 05/08/2018 6:00,46,,,,,,,,,,,,,,,,,
 05/08/2018 7:00,69,,,,,,,,,,,,,,,,,
 05/08/2018 8:00,124,,,,,,,,,,,,,,,,,
 05/08/2018 9:00,151,,,,,,,,,,,,,,,,,
 05/08/2018 10:00,153,,,,,,,,,,,,,,,,,
 05/08/2018 11:00,139,,,,,,,,,,,,,,,,,
 05/08/2018 12:00,152,,,,,,,,,,,,,,,,,
 05/08/2018 13:00,125,,,,,,,,,,,,,,,,,
 05/08/2018 14:00,137,,,,,,,,,,,,,,,,,
 05/08/2018 15:00,122,,,,,,,,,,,,,,,,,
 05/08/2018 16:00,130,,,,,,,,,,,,,,,,,
 05/08/2018 17:00,126,,,,,,,,,,,,,,,,,
 05/08/2018 18:00,120,,,,,,,,,,,,,,,,,
 05/08/2018 19:00,85,,,,,,,,,,,,,,,,,
 05/08/2018 20:00,46,,,,,,,,,,,,,,,,,
 05/08/2018 21:00,39,,,,,,,,,,,,,,,,,
 05/08/2018 22:00,53,,,,,,,,,,,,,,,,,
 05/08/2018 23:00,28,,,,,,,,,,,,,,,,,
 05/09/2018 0:00,-3,,,,,,,,,,,,,,,,,
 05/09/2018 1:00,-35,,,,,,,,,,,,,,,,,
 05/09/2018 2:00,-36,,,,,,,,,,,,,,,,,
 05/09/2018 3:00,-32,,,,,,,,,,,,,,,,,
 05/09/2018 4:00,-35,,,,,,,,,,,,,,,,,
 05/09/2018 5:00,-48,,,,,,,,,,,,,,,,,
 05/09/2018 6:00,-17,,,,,,,,,,,,,,,,,
 05/09/2018 7:00,87,,,,,,,,,,,,,,,,,
 05/09/2018 8:00,226,,,,,,,,,,,,,,,,,
 05/09/2018 9:00,356,,,,,,,,,,,,,,,,,
 05/09/2018 10:00,308,,,,,,,,,,,,,,,,,
 05/09/2018 11:00,296,,,,,,,,,,,,,,,,,
 05/09/2018 12:00,296,,,,,,,,,,,,,,,,,
 05/09/2018 13:00,275,,,,,,,,,,,,,,,,,
 05/09/2018 14:00,352,,,,,,,,,,,,,,,,,
 05/09/2018 15:00,377,,,,,,,,,,,,,,,,,
 05/09/2018 16:00,323,,,,,,,,,,,,,,,,,
 05/09/2018 17:00,310,,,,,,,,,,,,,,,,,
 05/09/2018 18:00,309,,,,,,,,,,,,,,,,,
 05/09/2018 19:00,270,,,,,,,,,,,,,,,,,
 05/09/2018 20:00,296,,,,,,,,,,,,,,,,,
 05/09/2018 21:00,265,,,,,,,,,,,,,,,,,
 05/09/2018 22:00,205,,,,,,,,,,,,,,,,,
 05/09/2018 23:00,120,,,,,,,,,,,,,,,,,
 05/10/2018 0:00,77,,,,,,,,,,,,,,,,,
 05/10/2018 1:00,83,,,,,,,,,,,,,,,,,
 05/10/2018 2:00,21,,,,,,,,,,,,,,,,,
 05/10/2018 3:00,15,,,,,,,,,,,,,,,,,
 05/10/2018 4:00,0,,,,,,,,,,,,,,,,,
 05/10/2018 5:00,-3,,,,,,,,,,,,,,,,,
 05/10/2018 6:00,-1,,,,,,,,,,,,,,,,,
 05/10/2018 7:00,68,,,,,,,,,,,,,,,,,
 05/10/2018 8:00,134,,,,,,,,,,,,,,,,,
 05/10/2018 9:00,198,,,,,,,,,,,,,,,,,
 05/10/2018 10:00,209,,,,,,,,,,,,,,,,,
 05/10/2018 11:00,222,,,,,,,,,,,,,,,,,
 05/10/2018 12:00,214,,,,,,,,,,,,,,,,,
 05/10/2018 13:00,197,,,,,,,,,,,,,,,,,
 05/10/2018 14:00,194,,,,,,,,,,,,,,,,,
 05/10/2018 15:00,167,,,,,,,,,,,,,,,,,
 05/10/2018 16:00,204,,,,,,,,,,,,,,,,,
 05/10/2018 17:00,215,,,,,,,,,,,,,,,,,
 05/10/2018 18:00,262,,,,,,,,,,,,,,,,,
 05/10/2018 19:00,241,,,,,,,,,,,,,,,,,
 05/10/2018 20:00,252,,,,,,,,,,,,,,,,,
 05/10/2018 21:00,260,,,,,,,,,,,,,,,,,
 05/10/2018 22:00,214,,,,,,,,,,,,,,,,,
 05/10/2018 23:00,83,,,,,,,,,,,,,,,,,
 05/11/2018 0:00,7,,,,,,,,,,,,,,,,,
 05/11/2018 1:00,-25,,,,,,,,,,,,,,,,,
 05/11/2018 2:00,-31,,,,,,,,,,,,,,,,,
 05/11/2018 3:00,-19,,,,,,,,,,,,,,,,,
 05/11/2018 4:00,-15,,,,,,,,,,,,,,,,,
 05/11/2018 5:00,-14,,,,,,,,,,,,,,,,,
 05/11/2018 6:00,45,,,,,,,,,,,,,,,,,
 05/11/2018 7:00,72,,,,,,,,,,,,,,,,,
 05/11/2018 8:00,180,,,,,,,,,,,,,,,,,
 05/11/2018 9:00,236,,,,,,,,,,,,,,,,,
 05/11/2018 10:00,240,,,,,,,,,,,,,,,,,
 05/11/2018 11:00,205,,,,,,,,,,,,,,,,,
 05/11/2018 12:00,167,,,,,,,,,,,,,,,,,
 05/11/2018 13:00,174,,,,,,,,,,,,,,,,,
 05/11/2018 14:00,154,,,,,,,,,,,,,,,,,
 05/11/2018 15:00,132,,,,,,,,,,,,,,,,,
 05/11/2018 16:00,172,,,,,,,,,,,,,,,,,
 05/11/2018 17:00,174,,,,,,,,,,,,,,,,,
 05/11/2018 18:00,150,,,,,,,,,,,,,,,,,
 05/11/2018 19:00,130,,,,,,,,,,,,,,,,,
 05/11/2018 20:00,57,,,,,,,,,,,,,,,,,
 05/11/2018 21:00,106,,,,,,,,,,,,,,,,,
 05/11/2018 22:00,82,,,,,,,,,,,,,,,,,
 05/11/2018 23:00,40,,,,,,,,,,,,,,,,,
 05/12/2018 0:00,57,,,,,,,,,,,,,,,,,
 05/12/2018 1:00,48,,,,,,,,,,,,,,,,,
 05/12/2018 2:00,33,,,,,,,,,,,,,,,,,
 05/12/2018 3:00,3,,,,,,,,,,,,,,,,,
 05/12/2018 4:00,-3,,,,,,,,,,,,,,,,,
 05/12/2018 5:00,72,,,,,,,,,,,,,,,,,
 05/12/2018 6:00,111,,,,,,,,,,,,,,,,,
 05/12/2018 7:00,150,,,,,,,,,,,,,,,,,
 05/12/2018 8:00,236,,,,,,,,,,,,,,,,,
 05/12/2018 9:00,268,,,,,,,,,,,,,,,,,
 05/12/2018 10:00,322,,,,,,,,,,,,,,,,,
 05/12/2018 11:00,325,,,,,,,,,,,,,,,,,
 05/12/2018 12:00,305,,,,,,,,,,,,,,,,,
 05/12/2018 13:00,286,,,,,,,,,,,,,,,,,
 05/12/2018 14:00,198,,,,,,,,,,,,,,,,,
 05/12/2018 15:00,159,,,,,,,,,,,,,,,,,
 05/12/2018 16:00,122,,,,,,,,,,,,,,,,,
 05/12/2018 17:00,118,,,,,,,,,,,,,,,,,
 05/12/2018 18:00,133,,,,,,,,,,,,,,,,,
 05/12/2018 19:00,153,,,,,,,,,,,,,,,,,
 05/12/2018 20:00,183,,,,,,,,,,,,,,,,,
 05/12/2018 21:00,186,,,,,,,,,,,,,,,,,
 05/12/2018 22:00,160,,,,,,,,,,,,,,,,,
 05/12/2018 23:00,80,,,,,,,,,,,,,,,,,
 05/13/2018 0:00,75,,,,,,,,,,,,,,,,,
 05/13/2018 1:00,51,,,,,,,,,,,,,,,,,
 05/13/2018 2:00,17,,,,,,,,,,,,,,,,,
 05/13/2018 3:00,-3,,,,,,,,,,,,,,,,,
 05/13/2018 4:00,8,,,,,,,,,,,,,,,,,
 05/13/2018 5:00,10,,,,,,,,,,,,,,,,,
 05/13/2018 6:00,16,,,,,,,,,,,,,,,,,
 05/13/2018 7:00,42,,,,,,,,,,,,,,,,,
 05/13/2018 8:00,114,,,,,,,,,,,,,,,,,
 05/13/2018 9:00,196,,,,,,,,,,,,,,,,,
 05/13/2018 10:00,261,,,,,,,,,,,,,,,,,
 05/13/2018 11:00,290,,,,,,,,,,,,,,,,,
 05/13/2018 12:00,298,,,,,,,,,,,,,,,,,
 05/13/2018 13:00,299,,,,,,,,,,,,,,,,,
 05/13/2018 14:00,272,,,,,,,,,,,,,,,,,
 05/13/2018 15:00,204,,,,,,,,,,,,,,,,,
 05/13/2018 16:00,172,,,,,,,,,,,,,,,,,
 05/13/2018 17:00,178,,,,,,,,,,,,,,,,,
 05/13/2018 18:00,187,,,,,,,,,,,,,,,,,
 05/13/2018 19:00,169,,,,,,,,,,,,,,,,,
 05/13/2018 20:00,157,,,,,,,,,,,,,,,,,
 05/13/2018 21:00,99,,,,,,,,,,,,,,,,,
 05/13/2018 22:00,102,,,,,,,,,,,,,,,,,
 05/13/2018 23:00,69,,,,,,,,,,,,,,,,,
 05/14/2018 0:00,68,,,,,,,,,,,,,,,,,
 05/14/2018 1:00,53,,,,,,,,,,,,,,,,,
 05/14/2018 2:00,22,,,,,,,,,,,,,,,,,
 05/14/2018 3:00,30,,,,,,,,,,,,,,,,,
 05/14/2018 4:00,19,,,,,,,,,,,,,,,,,
 05/14/2018 5:00,23,,,,,,,,,,,,,,,,,
 05/14/2018 6:00,40,,,,,,,,,,,,,,,,,
 05/14/2018 7:00,106,,,,,,,,,,,,,,,,,
 05/14/2018 8:00,153,,,,,,,,,,,,,,,,,
 05/14/2018 9:00,191,,,,,,,,,,,,,,,,,
 05/14/2018 10:00,187,,,,,,,,,,,,,,,,,
 05/14/2018 11:00,209,,,,,,,,,,,,,,,,,
 05/14/2018 12:00,206,,,,,,,,,,,,,,,,,
 05/14/2018 13:00,196,,,,,,,,,,,,,,,,,
 05/14/2018 14:00,153,,,,,,,,,,,,,,,,,
 05/14/2018 15:00,120,,,,,,,,,,,,,,,,,
 05/14/2018 16:00,126,,,,,,,,,,,,,,,,,
 05/14/2018 17:00,160,,,,,,,,,,,,,,,,,
 05/14/2018 18:00,195,,,,,,,,,,,,,,,,,
 05/14/2018 19:00,223,,,,,,,,,,,,,,,,,
 05/14/2018 20:00,253,,,,,,,,,,,,,,,,,
 05/14/2018 21:00,209,,,,,,,,,,,,,,,,,
 05/14/2018 22:00,171,,,,,,,,,,,,,,,,,
 05/14/2018 23:00,131,,,,,,,,,,,,,,,,,
 05/15/2018 0:00,67,,,,,,,,,,,,,,,,,
 05/15/2018 1:00,37,,,,,,,,,,,,,,,,,
 05/15/2018 2:00,-4,,,,,,,,,,,,,,,,,
 05/15/2018 3:00,-5,,,,,,,,,,,,,,,,,
 05/15/2018 4:00,-8,,,,,,,,,,,,,,,,,
 05/15/2018 5:00,-13,,,,,,,,,,,,,,,,,
 05/15/2018 6:00,34,,,,,,,,,,,,,,,,,
 05/15/2018 7:00,95,,,,,,,,,,,,,,,,,
 05/15/2018 8:00,182,,,,,,,,,,,,,,,,,
 05/15/2018 9:00,188,,,,,,,,,,,,,,,,,
 05/15/2018 10:00,217,,,,,,,,,,,,,,,,,
 05/15/2018 11:00,240,,,,,,,,,,,,,,,,,
 05/15/2018 12:00,236,,,,,,,,,,,,,,,,,
 05/15/2018 13:00,191,,,,,,,,,,,,,,,,,
 05/15/2018 14:00,139,,,,,,,,,,,,,,,,,
 05/15/2018 15:00,110,,,,,,,,,,,,,,,,,
 05/15/2018 16:00,99,,,,,,,,,,,,,,,,,
 05/15/2018 17:00,178,,,,,,,,,,,,,,,,,
 05/15/2018 18:00,223,,,,,,,,,,,,,,,,,
 05/15/2018 19:00,222,,,,,,,,,,,,,,,,,
 05/15/2018 20:00,206,,,,,,,,,,,,,,,,,
 05/15/2018 21:00,202,,,,,,,,,,,,,,,,,
 05/15/2018 22:00,187,,,,,,,,,,,,,,,,,
 05/15/2018 23:00,177,,,,,,,,,,,,,,,,,
 05/16/2018 0:00,175,,,,,,,,,,,,,,,,,
 05/16/2018 1:00,85,,,,,,,,,,,,,,,,,
 05/16/2018 2:00,27,,,,,,,,,,,,,,,,,
 05/16/2018 3:00,-9,,,,,,,,,,,,,,,,,
 05/16/2018 4:00,-6,,,,,,,,,,,,,,,,,
 05/16/2018 5:00,-7,,,,,,,,,,,,,,,,,
 05/16/2018 6:00,-1,,,,,,,,,,,,,,,,,
 05/16/2018 7:00,37,,,,,,,,,,,,,,,,,
 05/16/2018 8:00,109,,,,,,,,,,,,,,,,,
 05/16/2018 9:00,191,,,,,,,,,,,,,,,,,
 05/16/2018 10:00,246,,,,,,,,,,,,,,,,,
 05/16/2018 11:00,309,,,,,,,,,,,,,,,,,
 05/16/2018 12:00,311,,,,,,,,,,,,,,,,,
 05/16/2018 13:00,307,,,,,,,,,,,,,,,,,
 05/16/2018 14:00,339,,,,,,,,,,,,,,,,,
 05/16/2018 15:00,328,,,,,,,,,,,,,,,,,
 05/16/2018 16:00,317,,,,,,,,,,,,,,,,,
 05/16/2018 17:00,337,,,,,,,,,,,,,,,,,
 05/16/2018 18:00,331,,,,,,,,,,,,,,,,,
 05/16/2018 19:00,295,,,,,,,,,,,,,,,,,
 05/16/2018 20:00,293,,,,,,,,,,,,,,,,,
 05/16/2018 21:00,268,,,,,,,,,,,,,,,,,
 05/16/2018 22:00,222,,,,,,,,,,,,,,,,,
 05/16/2018 23:00,164,,,,,,,,,,,,,,,,,
 05/17/2018 0:00,112,,,,,,,,,,,,,,,,,
 05/17/2018 1:00,73,,,,,,,,,,,,,,,,,
 05/17/2018 2:00,52,,,,,,,,,,,,,,,,,
 05/17/2018 3:00,55,,,,,,,,,,,,,,,,,
 05/17/2018 4:00,42,,,,,,,,,,,,,,,,,
 05/17/2018 5:00,41,,,,,,,,,,,,,,,,,
 05/17/2018 6:00,32,,,,,,,,,,,,,,,,,
 05/17/2018 7:00,52,,,,,,,,,,,,,,,,,
 05/17/2018 8:00,120,,,,,,,,,,,,,,,,,
 05/17/2018 9:00,153,,,,,,,,,,,,,,,,,
 05/17/2018 10:00,198,,,,,,,,,,,,,,,,,
 05/17/2018 11:00,220,,,,,,,,,,,,,,,,,
 05/17/2018 12:00,268,,,,,,,,,,,,,,,,,
 05/17/2018 13:00,292,,,,,,,,,,,,,,,,,
 05/17/2018 14:00,316,,,,,,,,,,,,,,,,,
 05/17/2018 15:00,313,,,,,,,,,,,,,,,,,
 05/17/2018 16:00,273,,,,,,,,,,,,,,,,,
 05/17/2018 17:00,278,,,,,,,,,,,,,,,,,
 05/17/2018 18:00,299,,,,,,,,,,,,,,,,,
 05/17/2018 19:00,324,,,,,,,,,,,,,,,,,
 05/17/2018 20:00,348,,,,,,,,,,,,,,,,,
 05/17/2018 21:00,339,,,,,,,,,,,,,,,,,
 05/17/2018 22:00,294,,,,,,,,,,,,,,,,,
 05/17/2018 23:00,266,,,,,,,,,,,,,,,,,
 05/18/2018 0:00,262,,,,,,,,,,,,,,,,,
 05/18/2018 1:00,237,,,,,,,,,,,,,,,,,
 05/18/2018 2:00,197,,,,,,,,,,,,,,,,,
 05/18/2018 3:00,171,,,,,,,,,,,,,,,,,
 05/18/2018 4:00,155,,,,,,,,,,,,,,,,,
 05/18/2018 5:00,148,,,,,,,,,,,,,,,,,
 05/18/2018 6:00,205,,,,,,,,,,,,,,,,,
 05/18/2018 7:00,262,,,,,,,,,,,,,,,,,
 05/18/2018 8:00,315,,,,,,,,,,,,,,,,,
 05/18/2018 9:00,321,,,,,,,,,,,,,,,,,
 05/18/2018 10:00,319,,,,,,,,,,,,,,,,,
 05/18/2018 11:00,314,,,,,,,,,,,,,,,,,
 05/18/2018 12:00,310,,,,,,,,,,,,,,,,,
 05/18/2018 13:00,297,,,,,,,,,,,,,,,,,
 05/18/2018 14:00,272,,,,,,,,,,,,,,,,,
 05/18/2018 15:00,236,,,,,,,,,,,,,,,,,
 05/18/2018 16:00,240,,,,,,,,,,,,,,,,,
 05/18/2018 17:00,304,,,,,,,,,,,,,,,,,
 05/18/2018 18:00,303,,,,,,,,,,,,,,,,,
 05/18/2018 19:00,319,,,,,,,,,,,,,,,,,
 05/18/2018 20:00,315,,,,,,,,,,,,,,,,,
 05/18/2018 21:00,308,,,,,,,,,,,,,,,,,
 05/18/2018 22:00,292,,,,,,,,,,,,,,,,,
 05/18/2018 23:00,280,,,,,,,,,,,,,,,,,
 05/19/2018 0:00,237,,,,,,,,,,,,,,,,,
 05/19/2018 1:00,207,,,,,,,,,,,,,,,,,
 05/19/2018 2:00,139,,,,,,,,,,,,,,,,,
 05/19/2018 3:00,121,,,,,,,,,,,,,,,,,
 05/19/2018 4:00,124,,,,,,,,,,,,,,,,,
 05/19/2018 5:00,130,,,,,,,,,,,,,,,,,
 05/19/2018 6:00,140,,,,,,,,,,,,,,,,,
 05/19/2018 7:00,239,,,,,,,,,,,,,,,,,
 05/19/2018 8:00,233,,,,,,,,,,,,,,,,,
 05/19/2018 9:00,233,,,,,,,,,,,,,,,,,
 05/19/2018 10:00,300,,,,,,,,,,,,,,,,,
 05/19/2018 11:00,325,,,,,,,,,,,,,,,,,
 05/19/2018 12:00,269,,,,,,,,,,,,,,,,,
 05/19/2018 13:00,225,,,,,,,,,,,,,,,,,
 05/19/2018 14:00,162,,,,,,,,,,,,,,,,,
 05/19/2018 15:00,88,,,,,,,,,,,,,,,,,
 05/19/2018 16:00,72,,,,,,,,,,,,,,,,,
 05/19/2018 17:00,63,,,,,,,,,,,,,,,,,
 05/19/2018 18:00,89,,,,,,,,,,,,,,,,,
 05/19/2018 19:00,69,,,,,,,,,,,,,,,,,
 05/19/2018 20:00,44,,,,,,,,,,,,,,,,,
 05/19/2018 21:00,18,,,,,,,,,,,,,,,,,
 05/19/2018 22:00,27,,,,,,,,,,,,,,,,,
 05/19/2018 23:00,3,,,,,,,,,,,,,,,,,
 05/20/2018 0:00,-2,,,,,,,,,,,,,,,,,
 05/20/2018 1:00,6,,,,,,,,,,,,,,,,,
 05/20/2018 2:00,17,,,,,,,,,,,,,,,,,
 05/20/2018 3:00,12,,,,,,,,,,,,,,,,,
 05/20/2018 4:00,17,,,,,,,,,,,,,,,,,
 05/20/2018 5:00,15,,,,,,,,,,,,,,,,,
 05/20/2018 6:00,12,,,,,,,,,,,,,,,,,
 05/20/2018 7:00,19,,,,,,,,,,,,,,,,,
 05/20/2018 8:00,59,,,,,,,,,,,,,,,,,
 05/20/2018 9:00,42,,,,,,,,,,,,,,,,,
 05/20/2018 10:00,29,,,,,,,,,,,,,,,,,
 05/20/2018 11:00,29,,,,,,,,,,,,,,,,,
 05/20/2018 12:00,40,,,,,,,,,,,,,,,,,
 05/20/2018 13:00,42,,,,,,,,,,,,,,,,,
 05/20/2018 14:00,46,,,,,,,,,,,,,,,,,
 05/20/2018 15:00,45,,,,,,,,,,,,,,,,,
 05/20/2018 16:00,50,,,,,,,,,,,,,,,,,
 05/20/2018 17:00,115,,,,,,,,,,,,,,,,,
 05/20/2018 18:00,179,,,,,,,,,,,,,,,,,
 05/20/2018 19:00,198,,,,,,,,,,,,,,,,,
 05/20/2018 20:00,218,,,,,,,,,,,,,,,,,
 05/20/2018 21:00,226,,,,,,,,,,,,,,,,,
 05/20/2018 22:00,200,,,,,,,,,,,,,,,,,
 05/20/2018 23:00,183,,,,,,,,,,,,,,,,,
 05/21/2018 0:00,159,,,,,,,,,,,,,,,,,
 05/21/2018 1:00,120,,,,,,,,,,,,,,,,,
 05/21/2018 2:00,103,,,,,,,,,,,,,,,,,
 05/21/2018 3:00,69,,,,,,,,,,,,,,,,,
 05/21/2018 4:00,71,,,,,,,,,,,,,,,,,
 05/21/2018 5:00,98,,,,,,,,,,,,,,,,,
 05/21/2018 6:00,153,,,,,,,,,,,,,,,,,
 05/21/2018 7:00,163,,,,,,,,,,,,,,,,,
 05/21/2018 8:00,190,,,,,,,,,,,,,,,,,
 05/21/2018 9:00,234,,,,,,,,,,,,,,,,,
 05/21/2018 10:00,279,,,,,,,,,,,,,,,,,
 05/21/2018 11:00,267,,,,,,,,,,,,,,,,,
 05/21/2018 12:00,246,,,,,,,,,,,,,,,,,
 05/21/2018 13:00,207,,,,,,,,,,,,,,,,,
 05/21/2018 14:00,154,,,,,,,,,,,,,,,,,
 05/21/2018 15:00,95,,,,,,,,,,,,,,,,,
 05/21/2018 16:00,44,,,,,,,,,,,,,,,,,
 05/21/2018 17:00,24,,,,,,,,,,,,,,,,,
 05/21/2018 18:00,16,,,,,,,,,,,,,,,,,
 05/21/2018 19:00,5,,,,,,,,,,,,,,,,,
 05/21/2018 20:00,13,,,,,,,,,,,,,,,,,
 05/21/2018 21:00,36,,,,,,,,,,,,,,,,,
 05/21/2018 22:00,18,,,,,,,,,,,,,,,,,
 05/21/2018 23:00,30,,,,,,,,,,,,,,,,,
 05/22/2018 0:00,100,,,,,,,,,,,,,,,,,
 05/22/2018 1:00,109,,,,,,,,,,,,,,,,,
 05/22/2018 2:00,91,,,,,,,,,,,,,,,,,
 05/22/2018 3:00,94,,,,,,,,,,,,,,,,,
 05/22/2018 4:00,96,,,,,,,,,,,,,,,,,
 05/22/2018 5:00,110,,,,,,,,,,,,,,,,,
 05/22/2018 6:00,158,,,,,,,,,,,,,,,,,
 05/22/2018 7:00,178,,,,,,,,,,,,,,,,,
 05/22/2018 8:00,256,,,,,,,,,,,,,,,,,
 05/22/2018 9:00,331,,,,,,,,,,,,,,,,,
 05/22/2018 10:00,318,,,,,,,,,,,,,,,,,
 05/22/2018 11:00,323,,,,,,,,,,,,,,,,,
 05/22/2018 12:00,312,,,,,,,,,,,,,,,,,
 05/22/2018 13:00,276,,,,,,,,,,,,,,,,,
 05/22/2018 14:00,252,,,,,,,,,,,,,,,,,
 05/22/2018 15:00,219,,,,,,,,,,,,,,,,,
 05/22/2018 16:00,157,,,,,,,,,,,,,,,,,
 05/22/2018 17:00,131,,,,,,,,,,,,,,,,,
 05/22/2018 18:00,150,,,,,,,,,,,,,,,,,
 05/22/2018 19:00,155,,,,,,,,,,,,,,,,,
 05/22/2018 20:00,161,,,,,,,,,,,,,,,,,
 05/22/2018 21:00,164,,,,,,,,,,,,,,,,,
 05/22/2018 22:00,170,,,,,,,,,,,,,,,,,
 05/22/2018 23:00,153,,,,,,,,,,,,,,,,,
 05/23/2018 0:00,102,,,,,,,,,,,,,,,,,
 05/23/2018 1:00,50,,,,,,,,,,,,,,,,,
 05/23/2018 2:00,51,,,,,,,,,,,,,,,,,
 05/23/2018 3:00,88,,,,,,,,,,,,,,,,,
 05/23/2018 4:00,101,,,,,,,,,,,,,,,,,
 05/23/2018 5:00,59,,,,,,,,,,,,,,,,,
 05/23/2018 6:00,99,,,,,,,,,,,,,,,,,
 05/23/2018 7:00,168,,,,,,,,,,,,,,,,,
 05/23/2018 8:00,305,,,,,,,,,,,,,,,,,
 05/23/2018 9:00,316,,,,,,,,,,,,,,,,,
 05/23/2018 10:00,305,,,,,,,,,,,,,,,,,
 05/23/2018 11:00,280,,,,,,,,,,,,,,,,,
 05/23/2018 12:00,272,,,,,,,,,,,,,,,,,
 05/23/2018 13:00,273,,,,,,,,,,,,,,,,,
 05/23/2018 14:00,234,,,,,,,,,,,,,,,,,
 05/23/2018 15:00,198,,,,,,,,,,,,,,,,,
 05/23/2018 16:00,202,,,,,,,,,,,,,,,,,
 05/23/2018 17:00,123,,,,,,,,,,,,,,,,,
 05/23/2018 18:00,83,,,,,,,,,,,,,,,,,
 05/23/2018 19:00,73,,,,,,,,,,,,,,,,,
 05/23/2018 20:00,103,,,,,,,,,,,,,,,,,
 05/23/2018 21:00,97,,,,,,,,,,,,,,,,,
 05/23/2018 22:00,86,,,,,,,,,,,,,,,,,
 05/23/2018 23:00,71,,,,,,,,,,,,,,,,,
 05/24/2018 0:00,49,,,,,,,,,,,,,,,,,
 05/24/2018 1:00,25,,,,,,,,,,,,,,,,,
 05/24/2018 2:00,26,,,,,,,,,,,,,,,,,
 05/24/2018 3:00,26,,,,,,,,,,,,,,,,,
 05/24/2018 4:00,48,,,,,,,,,,,,,,,,,
 05/24/2018 5:00,115,,,,,,,,,,,,,,,,,
 05/24/2018 6:00,154,,,,,,,,,,,,,,,,,
 05/24/2018 7:00,189,,,,,,,,,,,,,,,,,
 05/24/2018 8:00,247,,,,,,,,,,,,,,,,,
 05/24/2018 9:00,244,,,,,,,,,,,,,,,,,
 05/24/2018 10:00,232,,,,,,,,,,,,,,,,,
 05/24/2018 11:00,265,,,,,,,,,,,,,,,,,
 05/24/2018 12:00,254,,,,,,,,,,,,,,,,,
 05/24/2018 13:00,282,,,,,,,,,,,,,,,,,
 05/24/2018 14:00,286,,,,,,,,,,,,,,,,,
 05/24/2018 15:00,280,,,,,,,,,,,,,,,,,
 05/24/2018 16:00,194,,,,,,,,,,,,,,,,,
 05/24/2018 17:00,218,,,,,,,,,,,,,,,,,
 05/24/2018 18:00,209,,,,,,,,,,,,,,,,,
 05/24/2018 19:00,190,,,,,,,,,,,,,,,,,
 05/24/2018 20:00,205,,,,,,,,,,,,,,,,,
 05/24/2018 21:00,244,,,,,,,,,,,,,,,,,
 05/24/2018 22:00,189,,,,,,,,,,,,,,,,,
 05/24/2018 23:00,153,,,,,,,,,,,,,,,,,
 05/25/2018 0:00,74,,,,,,,,,,,,,,,,,
 05/25/2018 1:00,11,,,,,,,,,,,,,,,,,
 05/25/2018 2:00,-12,,,,,,,,,,,,,,,,,
 05/25/2018 3:00,3,,,,,,,,,,,,,,,,,
 05/25/2018 4:00,1,,,,,,,,,,,,,,,,,
 05/25/2018 5:00,-16,,,,,,,,,,,,,,,,,
 05/25/2018 6:00,-12,,,,,,,,,,,,,,,,,
 05/25/2018 7:00,10,,,,,,,,,,,,,,,,,
 05/25/2018 8:00,0,,,,,,,,,,,,,,,,,
 05/25/2018 9:00,75,,,,,,,,,,,,,,,,,
 05/25/2018 10:00,117,,,,,,,,,,,,,,,,,
 05/25/2018 11:00,166,,,,,,,,,,,,,,,,,
 05/25/2018 12:00,196,,,,,,,,,,,,,,,,,
 05/25/2018 13:00,216,,,,,,,,,,,,,,,,,
 05/25/2018 14:00,205,,,,,,,,,,,,,,,,,
 05/25/2018 15:00,221,,,,,,,,,,,,,,,,,
 05/25/2018 16:00,202,,,,,,,,,,,,,,,,,
 05/25/2018 17:00,218,,,,,,,,,,,,,,,,,
 05/25/2018 18:00,226,,,,,,,,,,,,,,,,,
 05/25/2018 19:00,235,,,,,,,,,,,,,,,,,
 05/25/2018 20:00,234,,,,,,,,,,,,,,,,,
 05/25/2018 21:00,210,,,,,,,,,,,,,,,,,
 05/25/2018 22:00,188,,,,,,,,,,,,,,,,,
 05/25/2018 23:00,212,,,,,,,,,,,,,,,,,
 05/26/2018 0:00,173,,,,,,,,,,,,,,,,,
 05/26/2018 1:00,84,,,,,,,,,,,,,,,,,
 05/26/2018 2:00,73,,,,,,,,,,,,,,,,,
 05/26/2018 3:00,64,,,,,,,,,,,,,,,,,
 05/26/2018 4:00,102,,,,,,,,,,,,,,,,,
 05/26/2018 5:00,153,,,,,,,,,,,,,,,,,
 05/26/2018 6:00,177,,,,,,,,,,,,,,,,,
 05/26/2018 7:00,220,,,,,,,,,,,,,,,,,
 05/26/2018 8:00,219,,,,,,,,,,,,,,,,,
 05/26/2018 9:00,261,,,,,,,,,,,,,,,,,
 05/26/2018 10:00,338,,,,,,,,,,,,,,,,,